Location: Bartlett
(35.2045°N, 89.8740°W)
Time: 15:56:38
(UTC+00:00)

Transit 4A - Pass Details

Date: 16 December 2025
Orbit: 867 x 974 km, 66.8° (Epoch: 14 January)

Event Time Altitude Azimuth Distance (km) Brightness Sun altitude
Rises 09:24:06 0° 334° (NNW) 3,535 - -43.5°
Reaches altitude 10° 09:26:35 10° 336° (NNW) 2,606 - -43.0°
Maximum altitude 09:32:40 79° 63° (ENE) 953 - -41.7°
Exits shadow 09:38:01 15° 149° (SSE) 2,345 10.2 -40.6°
Drops below altitude 10° 09:38:54 10° 150° (SSE) 2,666 10.5 -40.4°
Sets 09:41:28 0° 152° (SSE) 3,621 11.3 -39.9°
